Location: Navajo
(48.7922°N, 105.0603°W)
Time: 16:20:29
(UTC+00:00)

QB50P2 - Pass Details

Date: 01 July 2022
Orbit: 590 x 605 km, 97.9° (Epoch: 06 August)

Event Time Altitude Azimuth Distance (km) Brightness Sun altitude
Rises 08:08:03 0° 18° (NNE) 2,860 ? -16.7°
Reaches altitude 10° 08:10:17 10° 24° (NNE) 1,954 ? -16.6°
Maximum altitude 08:14:25 49° 100° (E) 778 ? -16.4°
Enters shadow 08:16:35 25° 163° (SSE) 1,221 ? -16.3°
